Regional Weather Roundup
Issued by NWS State College, PA

Home | Current Version | Previous Version | Graphics & Text | Print | Product List | Glossary Off
Versions: 1 2 3 4 5 6 7 8 9 10 11 12 13 14 15 16 17 18 19 20 21 22 23 24 25 26 27 28 29 30 31 32 33 34 35 36 37 38 39 40 41 42 43 44 45 46 47 48 49 50

000
ASUS41 KCTP 122010
RWRCTP

REGIONAL WEATHER ROUNDUP
NATIONAL WEATHER SERVICE STATE COLLEGE PA
400 PM EDT SAT JUL 12 2014

Note: "fair" indicates few or no clouds below 12,000 feet with no
significant weather and/or obstructions to visibility.

* = STATION THAT DOES NOT REPORT PRECIPITATION /E.G. RAIN...SNOW...ETC/
    THUNDER OR FOG.

PAZ002>004-007>009-013>016-020>023-029>032-122100-
WESTERN PENNSYLVANIA

CITY           SKY/WX    TMP DP  RH WIND       PRES   REMARKS
ERIE           MOSUNNY   82  60  47 NW7       30.12F
MEADVILLE      MOSUNNY   81  59  47 SW9       30.15F
FRANKLIN*      PTSUNNY   81  59  47 SW8       30.18F
NEW CASTLE       N/A     84  62  47 VRB5      30.16F
BEAVER COUNTY  SUNNY     86  59  39 W6        30.17F
BUTLER*        PTSUNNY   84  59  42 SW7       30.18F
PITTSBURGH INT CLOUDY    84  60  44 SW9       30.16F
PITTSBURGH     PTSUNNY   84  58  40 SW10      30.16F
INDIANA*       MOSUNNY   84  59  42 W9        30.21F
LATROBE        PTSUNNY   84  61  45 W9        30.18F
WASHINGTON CO* PTSUNNY   84  63  48 SW7       30.18S
$$

PAZ004>006-010>012-017>019-024>028-033>037-041-042-045-046-049>053-122100-
CENTRAL PENNSYLVANIA

CITY           SKY/WX    TMP DP  RH WIND       PRES   REMARKS
BRADFORD       MOSUNNY   79  55  43 W8        30.19S
DUBOIS         MOSUNNY   81  59  47 W9        30.18F
CLEARFIELD     MOSUNNY   82  56  40 SW12      30.18S
JOHNSTOWN      MOSUNNY   79  55  43 SW6       30.22F
ALTOONA        SUNNY     82  59  45 SW9       30.18F
STATE COLLEGE  MOSUNNY   84  63  48 W8        30.15F
WILLIAMSPORT   SUNNY     85  68  56 SE5       30.10F
SELINSGROVE    SUNNY     86  70  58 VRB3      30.13F
FT INDIANTOWN  NOT AVBL
CAPITAL CITY   PTSUNNY   81  73  76 E8        30.13F
HARRISBURG     RAIN      77  72  84 VRB3      30.14S
YORK           MOSUNNY   85  69  58 VRB7      30.14F
$$

PAZ038>040-043-044-047-048-054-055-060>062-067>071-122100-
EASTERN PENNSYLVANIA

CITY           SKY/WX    TMP DP  RH WIND       PRES   REMARKS
SCRANTON       MOSUNNY   83  65  54 VRB7G16   30.15F
MOUNT POCONO   MOSUNNY   80  64  58 S12G18    30.22F
ALLENTOWN      PTSUNNY   86  63  45 S8        30.15F
QUAKERTOWN*    PTCLDY    86  64  48 S8        30.17F
READING        CLOUDY    83  64  52 S8        30.16S
LANCASTER      CLOUDY    74  66  76 NW17G24   30.18R
COATESVILLE    PTCLDY    82  64  54 SW3       30.19S
POTTSTOWN      MOSUNNY   87  65  47 S8        30.17F
BLUE BELL      MOSUNNY   88  64  45 SW8       30.15F
DOYLESTOWN     MOSUNNY   84  63  49 S5        30.16F
WILLOW GROVE   NOT AVBL
NORTH PHILA    PTSUNNY   88  59  37 VRB6      30.17F
PHILADELPHIA   MOSUNNY   88  61  40 S13       30.16F
$$



USA.gov is the U.S. government's official web portal to all federal, state and local government web resources and services.